Klamath Falls, OR

9:13 PM PDT on April 27, 2017 (GMT -0700)
Klamath Falls International

Weather History for KLMT - March, 2014

Change the Weather History Date:

Tuesday, March 11, 2014

  Actual Average Record
Temperature  
Mean Temperature 36 °F 38 °F  
Max Temperature 50 °F 50 °F 70 °F (2005)
Min Temperature 22 °F 26 °F 11 °F (1967)
Degree Days  
Heating Degree Days 29 27  
Month to date heating degree days 232 302  
Since 1 July heating degree days 5015 5143  
Cooling Degree Days 0 0  
Month to date cooling degree days 0 0  
Year to date cooling degree days 0 0  
Moisture  
Dew Point 21 °F    
Average Humidity 58    
Maximum Humidity 84    
Minimum Humidity 32    
Precipitation  
Precipitation 0.00 in 0.03 in 0.39 in (1983)
Month to date precipitation 1.35 0.43  
Year to date precipitation 4.00 4.20  
Sea Level Pressure  
Sea Level Pressure 30.40 in    
Wind  
Wind Speed 9 mph (ENE)    
Max Wind Speed 21 mph    
Max Gust Speed 28 mph    
Visibility 10 miles    
Events      
T = Trace of Precipitation, MM = Missing Value Source: NWS Daily Summary

Daily Weather History Graph

Daily Weather History Graph

Search for Another Location

Airport or City:

Trip Planner

Search our weather history database for the weather conditions in past years. The results will help you decide how hot, cold, wet, or windy it might be!

Date:

Astronomy

Mar. 11, 2014 Rise Set
Actual Time 7:25 AM PDT 7:08 PM PDT
Civil Twilight 6:57 AM PDT 7:36 PM PDT
Nautical Twilight 6:25 AM PDT 8:09 PM PDT
Astronomical Twilight 5:52 AM PDT 8:42 PM PDT
Moon 2:46 PM PDT (3/11) 4:26 AM PDT (3/11)
Length of Visible Light 12h 39m
Length of Day
11h 43m
Waxing Gibbous, 79% of the Moon is Illuminated
Mar 11
Waxing Gibbous
Mar 16
Full
Mar 23
Last Quarter
Mar 30
New
Apr 7
First Quarter

Hourly Weather History & Observations

Time (PDT) Temp. Windchill Dew Point Humidity Pressure Visibility Wind Dir Wind Speed Gust Speed Precip Events Conditions
12:53 AM 28.9 °F 22.8 °F 21.0 °F 72% 30.41 in 10.0 mi North 5.8 mph - N/A   Clear
1:53 AM 28.9 °F 23.9 °F 21.0 °F 72% 30.43 in 10.0 mi NNE 4.6 mph - N/A   Clear
2:53 AM 25.0 °F - 19.9 °F 81% 30.43 in 10.0 mi Calm Calm - N/A   Clear
3:53 AM 23.0 °F - 18.0 °F 81% 30.42 in 10.0 mi Calm Calm - N/A   Clear
4:53 AM 25.0 °F 17.1 °F 19.0 °F 78% 30.41 in 10.0 mi NE 6.9 mph - N/A   Clear
5:53 AM 23.0 °F - 17.1 °F 78% 30.43 in 10.0 mi Calm Calm - N/A   Clear
6:53 AM 21.9 °F 15.7 °F 17.1 °F 82% 30.45 in 10.0 mi NE 4.6 mph - N/A   Clear
7:53 AM 27.0 °F - 18.0 °F 69% 30.45 in 10.0 mi Calm Calm - N/A   Clear
8:53 AM 32.0 °F 23.0 °F 21.9 °F 66% 30.46 in 10.0 mi ENE 11.5 mph - N/A   Clear
9:53 AM 34.0 °F 24.6 °F 21.9 °F 61% 30.46 in 10.0 mi ENE 13.8 mph - N/A   Clear
10:53 AM 37.9 °F 29.2 °F 23.0 °F 55% 30.45 in 10.0 mi ENE 15.0 mph - N/A   Clear
11:53 AM 42.1 °F 33.9 °F 24.1 °F 49% 30.44 in 10.0 mi East 17.3 mph - N/A   Clear
12:53 PM 44.1 °F 39.0 °F 25.0 °F 47% 30.42 in 10.0 mi ESE 9.2 mph - N/A   Clear
1:53 PM 48.0 °F - 24.1 °F 39% 30.38 in 10.0 mi East 11.5 mph 21.9 mph N/A   Clear
2:53 PM 50.0 °F - 21.9 °F 33% 30.36 in 10.0 mi East 16.1 mph - N/A   Clear
3:53 PM 48.9 °F - 21.9 °F 35% 30.36 in 10.0 mi East 17.3 mph - N/A   Clear
4:53 PM 48.9 °F - 21.9 °F 35% 30.34 in 10.0 mi East 15.0 mph 24.2 mph N/A   Clear
5:53 PM 48.0 °F - 23.0 °F 37% 30.34 in 10.0 mi ESE 10.4 mph 23.0 mph N/A   Clear
6:53 PM 46.0 °F 40.6 °F 21.9 °F 39% 30.35 in 10.0 mi East 11.5 mph - N/A   Clear
7:53 PM 37.9 °F 33.5 °F 21.9 °F 53% 30.37 in 10.0 mi East 5.8 mph - N/A   Clear
8:53 PM 36.0 °F 29.6 °F 23.0 °F 59% 30.36 in 10.0 mi ENE 8.1 mph - N/A   Clear
9:53 PM 37.9 °F 32.1 °F 21.0 °F 51% 30.37 in 10.0 mi East 8.1 mph - N/A   Clear
10:53 PM 35.1 °F 27.9 °F 21.9 °F 59% 30.38 in 10.0 mi East 9.2 mph - N/A   Clear
11:53 PM 37.0 °F 29.3 °F 21.9 °F 54% 30.37 in 10.0 mi East 11.5 mph - N/A   Clear